Year,Month,Day,Hour,Minute,Value (Times are PST for temperature in C)
2013,04,16,00,00,4.40
2013,04,16,00,01,4.40
2013,04,16,00,02,4.40
2013,04,16,00,03,4.40
2013,04,16,00,04,4.40
2013,04,16,00,05,4.30
2013,04,16,00,06,4.30
2013,04,16,00,07,4.30
2013,04,16,00,08,4.30
2013,04,16,00,09,4.30
2013,04,16,00,10,4.30
2013,04,16,00,11,4.20
2013,04,16,00,12,4.20
2013,04,16,00,13,4.20
2013,04,16,00,14,4.20
2013,04,16,00,15,4.20
2013,04,16,00,16,4.20
2013,04,16,00,17,4.10
2013,04,16,00,18,4.10
2013,04,16,00,19,4.10
2013,04,16,00,20,4.10
2013,04,16,00,21,4.10
2013,04,16,00,22,4.00
2013,04,16,00,23,4.00
2013,04,16,00,24,4.00
2013,04,16,00,25,3.90
2013,04,16,00,26,3.90
2013,04,16,00,27,3.90
2013,04,16,00,28,3.90
2013,04,16,00,29,3.80
2013,04,16,00,30,3.80
2013,04,16,00,31,3.80
2013,04,16,00,32,3.70
2013,04,16,00,33,3.70
2013,04,16,00,34,3.70
2013,04,16,00,35,3.70
2013,04,16,00,36,3.70
2013,04,16,00,37,3.70
2013,04,16,00,38,3.70
2013,04,16,00,39,3.70
2013,04,16,00,40,3.70
2013,04,16,00,41,3.70
2013,04,16,00,42,3.60
2013,04,16,00,43,3.60
2013,04,16,00,44,3.60
2013,04,16,00,45,3.50
2013,04,16,00,46,3.50
2013,04,16,00,47,3.50
2013,04,16,00,48,3.40
2013,04,16,00,49,3.40
2013,04,16,00,50,3.40
2013,04,16,00,51,3.40
2013,04,16,00,52,3.30
2013,04,16,00,53,3.30
2013,04,16,00,54,3.30
2013,04,16,00,55,3.30
2013,04,16,00,56,3.30
2013,04,16,00,57,3.30
2013,04,16,00,58,3.30
2013,04,16,00,59,3.30
2013,04,16,01,00,3.30
2013,04,16,01,01,3.40
2013,04,16,01,02,3.40
2013,04,16,01,03,3.40
2013,04,16,01,04,3.40
2013,04,16,01,05,3.50
2013,04,16,01,06,3.50
2013,04,16,01,07,3.50
2013,04,16,01,08,3.50
2013,04,16,01,09,3.50
2013,04,16,01,10,3.50
2013,04,16,01,11,3.50
2013,04,16,01,12,3.50
2013,04,16,01,13,3.40
2013,04,16,01,14,3.40
2013,04,16,01,15,3.40
2013,04,16,01,16,3.40
2013,04,16,01,17,3.40
2013,04,16,01,18,3.40
2013,04,16,01,19,3.40
2013,04,16,01,20,3.40
2013,04,16,01,21,3.40
2013,04,16,01,22,3.40
2013,04,16,01,23,3.40
2013,04,16,01,24,3.40
2013,04,16,01,25,3.30
2013,04,16,01,26,3.30
2013,04,16,01,27,3.30
2013,04,16,01,28,3.30
2013,04,16,01,29,3.30
2013,04,16,01,30,3.30
2013,04,16,01,31,3.30
2013,04,16,01,32,3.30
2013,04,16,01,33,3.30
2013,04,16,01,34,3.20
2013,04,16,01,35,3.20
2013,04,16,01,36,3.20
2013,04,16,01,37,3.20
2013,04,16,01,38,3.20
2013,04,16,01,39,3.20
2013,04,16,01,40,3.20
2013,04,16,01,41,3.20
2013,04,16,01,42,3.20
2013,04,16,01,43,3.30
2013,04,16,01,44,3.30
2013,04,16,01,45,3.30
2013,04,16,01,46,3.30
2013,04,16,01,47,3.30
2013,04,16,01,48,3.30
2013,04,16,01,49,3.30
2013,04,16,01,50,3.30
2013,04,16,01,51,3.30
2013,04,16,01,52,3.40
2013,04,16,01,53,3.40
2013,04,16,01,54,3.40
2013,04,16,01,55,3.40
2013,04,16,01,56,3.40
2013,04,16,01,57,3.40
2013,04,16,01,58,3.40
2013,04,16,01,59,3.50
2013,04,16,02,00,3.50
2013,04,16,02,01,3.50
2013,04,16,02,02,3.60
2013,04,16,02,03,3.60
2013,04,16,02,04,3.70
2013,04,16,02,05,3.70
2013,04,16,02,06,3.70
2013,04,16,02,07,3.70
2013,04,16,02,08,3.70
2013,04,16,02,09,3.80
2013,04,16,02,10,3.80
2013,04,16,02,11,3.80
2013,04,16,02,12,3.80
2013,04,16,02,13,3.80
2013,04,16,02,14,3.80
2013,04,16,02,15,3.80
2013,04,16,02,16,3.80
2013,04,16,02,17,3.80
2013,04,16,02,18,3.80
2013,04,16,02,19,3.80
2013,04,16,02,20,3.90
2013,04,16,02,21,3.90
2013,04,16,02,22,3.90
2013,04,16,02,23,3.90
2013,04,16,02,24,4.00
2013,04,16,02,25,4.00
2013,04,16,02,26,4.00
2013,04,16,02,27,4.00
2013,04,16,02,28,4.00
2013,04,16,02,29,4.00
2013,04,16,02,30,4.10
2013,04,16,02,31,4.10
2013,04,16,02,32,4.10
2013,04,16,02,33,4.10
2013,04,16,02,34,4.10
2013,04,16,02,35,4.10
2013,04,16,02,36,4.10
2013,04,16,02,37,4.00
2013,04,16,02,38,4.00
2013,04,16,02,39,3.90
2013,04,16,02,40,3.90
2013,04,16,02,41,3.90
2013,04,16,02,42,3.90
2013,04,16,02,43,3.80
2013,04,16,02,44,3.80
2013,04,16,02,45,3.80
2013,04,16,02,46,3.70
2013,04,16,02,47,3.70
2013,04,16,02,48,3.70
2013,04,16,02,49,3.70
2013,04,16,02,50,3.60
2013,04,16,02,51,3.60
2013,04,16,02,52,3.60
2013,04,16,02,53,3.50
2013,04,16,02,54,3.50
2013,04,16,02,55,3.50
2013,04,16,02,56,3.40
2013,04,16,02,57,3.40
2013,04,16,02,58,3.40
2013,04,16,02,59,3.40
2013,04,16,03,00,3.40
2013,04,16,03,01,3.40
2013,04,16,03,02,3.40
2013,04,16,03,03,3.40
2013,04,16,03,04,3.40
2013,04,16,03,05,3.40
2013,04,16,03,06,3.40
2013,04,16,03,07,3.30
2013,04,16,03,08,3.30
2013,04,16,03,09,3.30
2013,04,16,03,10,3.30
2013,04,16,03,11,3.30
2013,04,16,03,12,3.20
2013,04,16,03,13,3.20
2013,04,16,03,14,3.20
2013,04,16,03,15,3.20
2013,04,16,03,16,3.20
2013,04,16,03,17,3.20
2013,04,16,03,18,3.20
2013,04,16,03,19,3.20
2013,04,16,03,20,3.10
2013,04,16,03,21,3.10
2013,04,16,03,22,3.10
2013,04,16,03,23,3.10
2013,04,16,03,24,3.10
2013,04,16,03,25,3.10
2013,04,16,03,26,3.10
2013,04,16,03,27,3.10
2013,04,16,03,28,3.10
2013,04,16,03,29,3.10
2013,04,16,03,30,3.10
2013,04,16,03,31,3.10
2013,04,16,03,32,3.20
2013,04,16,03,33,3.20
2013,04,16,03,34,3.20
2013,04,16,03,35,3.20
2013,04,16,03,36,3.20
2013,04,16,03,37,3.20
2013,04,16,03,38,3.20
2013,04,16,03,39,3.20
2013,04,16,03,40,3.20
2013,04,16,03,41,3.20
2013,04,16,03,42,3.20
2013,04,16,03,43,3.20
2013,04,16,03,44,3.20
2013,04,16,03,45,3.20
2013,04,16,03,46,3.20
2013,04,16,03,47,3.20
2013,04,16,03,48,3.20
2013,04,16,03,49,3.20
2013,04,16,03,50,3.20
2013,04,16,03,51,3.20
2013,04,16,03,52,3.20
2013,04,16,03,53,3.10
2013,04,16,03,54,3.10
2013,04,16,03,55,3.10
2013,04,16,03,56,3.10
2013,04,16,03,57,3.10
2013,04,16,03,58,3.00
2013,04,16,03,59,3.00
2013,04,16,04,00,3.00
2013,04,16,04,01,2.90
2013,04,16,04,02,2.90
2013,04,16,04,03,2.90
2013,04,16,04,04,2.90
2013,04,16,04,05,2.90
2013,04,16,04,06,2.90
2013,04,16,04,07,2.80
2013,04,16,04,08,2.80
2013,04,16,04,09,2.80
2013,04,16,04,10,2.80
2013,04,16,04,11,2.80
2013,04,16,04,12,2.80
2013,04,16,04,13,2.80
2013,04,16,04,14,2.80
2013,04,16,04,15,2.80
2013,04,16,04,16,2.80
2013,04,16,04,17,2.80
2013,04,16,04,18,2.80
2013,04,16,04,19,2.80
2013,04,16,04,20,2.80
2013,04,16,04,21,2.80
2013,04,16,04,22,2.80
2013,04,16,04,23,2.80
2013,04,16,04,24,2.80
2013,04,16,04,25,2.80
2013,04,16,04,26,2.80
2013,04,16,04,27,2.80
2013,04,16,04,28,2.80
2013,04,16,04,29,2.80
2013,04,16,04,30,2.80
2013,04,16,04,31,2.80
2013,04,16,04,32,2.80
2013,04,16,04,33,2.80
2013,04,16,04,34,2.80
2013,04,16,04,35,2.80
2013,04,16,04,36,2.80
2013,04,16,04,37,2.80
2013,04,16,04,38,2.80
2013,04,16,04,39,2.80
2013,04,16,04,40,2.80
2013,04,16,04,41,2.80
2013,04,16,04,42,2.80
2013,04,16,04,43,2.80
2013,04,16,04,44,2.80
2013,04,16,04,45,2.80
2013,04,16,04,46,2.70
2013,04,16,04,47,2.70
2013,04,16,04,48,2.70
2013,04,16,04,49,2.70
2013,04,16,04,50,2.70
2013,04,16,04,51,2.70
2013,04,16,04,52,2.70
2013,04,16,04,53,2.70
2013,04,16,04,54,2.60
2013,04,16,04,55,2.60
2013,04,16,04,56,2.60
2013,04,16,04,57,2.60
2013,04,16,04,58,2.50
2013,04,16,04,59,2.50
2013,04,16,05,00,2.50
2013,04,16,05,01,2.40
2013,04,16,05,02,2.40
2013,04,16,05,03,2.40
2013,04,16,05,04,2.40
2013,04,16,05,05,2.40
2013,04,16,05,06,2.40
2013,04,16,05,07,2.40
2013,04,16,05,08,2.30
2013,04,16,05,09,2.30
2013,04,16,05,10,2.30
2013,04,16,05,11,2.30
2013,04,16,05,12,2.30
2013,04,16,05,13,2.30
2013,04,16,05,14,2.30
2013,04,16,05,15,2.30
2013,04,16,05,16,2.30
2013,04,16,05,17,2.30
2013,04,16,05,18,2.30
2013,04,16,05,19,2.30
2013,04,16,05,20,2.30
2013,04,16,05,21,2.30
2013,04,16,05,22,2.30
2013,04,16,05,23,2.20
2013,04,16,05,24,2.20
2013,04,16,05,25,2.20
2013,04,16,05,26,2.10
2013,04,16,05,27,2.10
2013,04,16,05,28,2.10
2013,04,16,05,29,2.10
2013,04,16,05,30,2.00
2013,04,16,05,31,2.00
2013,04,16,05,32,1.90
2013,04,16,05,33,1.90
2013,04,16,05,34,1.90
2013,04,16,05,35,1.90
2013,04,16,05,36,1.90
2013,04,16,05,37,1.80
2013,04,16,05,38,1.80
2013,04,16,05,39,1.80
2013,04,16,05,40,1.80
2013,04,16,05,41,1.80
2013,04,16,05,42,1.80
2013,04,16,05,43,1.70
2013,04,16,05,44,1.70
2013,04,16,05,45,1.70
2013,04,16,05,46,1.70
2013,04,16,05,47,1.60
2013,04,16,05,48,1.60
2013,04,16,05,49,1.60
2013,04,16,05,50,1.60
2013,04,16,05,51,1.60
2013,04,16,05,52,1.70
2013,04,16,05,53,1.70
2013,04,16,05,54,1.70
2013,04,16,05,55,1.70
2013,04,16,05,56,1.70
2013,04,16,05,57,1.80
2013,04,16,05,58,1.80
2013,04,16,05,59,1.80
2013,04,16,06,00,1.80
2013,04,16,06,01,1.70
2013,04,16,06,02,1.70
2013,04,16,06,03,1.70
2013,04,16,06,04,1.70
2013,04,16,06,05,1.70
2013,04,16,06,06,1.70
2013,04,16,06,07,1.70
2013,04,16,06,08,1.70
2013,04,16,06,09,1.70
2013,04,16,06,10,1.70
2013,04,16,06,11,1.70
2013,04,16,06,12,1.70
2013,04,16,06,13,1.70
2013,04,16,06,14,1.70
2013,04,16,06,15,1.70
2013,04,16,06,16,1.70
2013,04,16,06,17,1.70
2013,04,16,06,18,1.70
2013,04,16,06,19,1.60
2013,04,16,06,20,1.60
2013,04,16,06,21,1.60
2013,04,16,06,22,1.60
2013,04,16,06,23,1.60
2013,04,16,06,24,1.60
2013,04,16,06,25,1.60
2013,04,16,06,26,1.60
2013,04,16,06,27,1.60
2013,04,16,06,28,1.60
2013,04,16,06,29,1.60
2013,04,16,06,30,1.50
2013,04,16,06,31,1.50
2013,04,16,06,32,1.50
2013,04,16,06,33,1.50
2013,04,16,06,34,1.50
2013,04,16,06,35,1.50
2013,04,16,06,36,1.50
2013,04,16,06,37,1.50
2013,04,16,06,38,1.50
2013,04,16,06,39,1.50
2013,04,16,06,40,1.40
2013,04,16,06,41,1.40
2013,04,16,06,42,1.40
2013,04,16,06,43,1.40
2013,04,16,06,44,1.40
2013,04,16,06,45,1.40
2013,04,16,06,46,1.40
2013,04,16,06,47,1.40
2013,04,16,06,48,1.40
2013,04,16,06,49,1.40
2013,04,16,06,50,1.40
2013,04,16,06,51,1.40
2013,04,16,06,52,1.40
2013,04,16,06,53,1.40
2013,04,16,06,54,1.40
2013,04,16,06,55,1.40
2013,04,16,06,56,1.40
2013,04,16,06,57,1.40
2013,04,16,06,58,1.40
2013,04,16,06,59,1.40
2013,04,16,07,00,1.30
2013,04,16,07,01,1.30
2013,04,16,07,02,1.40
2013,04,16,07,03,1.40
2013,04,16,07,04,1.40
2013,04,16,07,05,1.40
2013,04,16,07,06,1.40
2013,04,16,07,07,1.50
2013,04,16,07,08,1.50
2013,04,16,07,09,1.50
2013,04,16,07,10,1.60
2013,04,16,07,11,1.60
2013,04,16,07,12,1.60
2013,04,16,07,13,1.60
2013,04,16,07,14,1.60
2013,04,16,07,15,1.70
2013,04,16,07,16,1.70
2013,04,16,07,17,1.70
2013,04,16,07,18,1.70
2013,04,16,07,19,1.70
2013,04,16,07,20,1.70
2013,04,16,07,21,1.70
2013,04,16,07,22,1.70
2013,04,16,07,23,1.70
2013,04,16,07,24,1.70
2013,04,16,07,25,1.70
2013,04,16,07,26,1.70
2013,04,16,07,27,1.70
2013,04,16,07,28,1.70
2013,04,16,07,29,1.70
2013,04,16,07,30,1.70
2013,04,16,07,31,1.70
2013,04,16,07,32,1.70
2013,04,16,07,33,1.70
2013,04,16,07,34,1.70
2013,04,16,07,35,1.70
2013,04,16,07,36,1.70
2013,04,16,07,37,1.70
2013,04,16,07,38,1.70
2013,04,16,07,39,1.70
2013,04,16,07,40,1.70
2013,04,16,07,41,1.80
2013,04,16,07,42,1.80
2013,04,16,07,43,1.80
2013,04,16,07,44,1.80
2013,04,16,07,45,1.70
2013,04,16,07,46,1.80
2013,04,16,07,47,1.80
2013,04,16,07,48,1.80
2013,04,16,07,49,1.80
2013,04,16,07,50,1.80
2013,04,16,07,51,1.80
2013,04,16,07,52,1.70
2013,04,16,07,53,1.70
2013,04,16,07,54,1.70
2013,04,16,07,55,1.70
2013,04,16,07,56,1.70
2013,04,16,07,57,1.70
2013,04,16,07,58,1.70
2013,04,16,07,59,1.70
2013,04,16,08,00,1.80
2013,04,16,08,01,1.80
2013,04,16,08,02,1.80
2013,04,16,08,03,1.80
2013,04,16,08,04,1.80
2013,04,16,08,05,1.80
2013,04,16,08,06,1.80
2013,04,16,08,07,1.80
2013,04,16,08,08,1.80
2013,04,16,08,09,1.80
2013,04,16,08,10,1.80
2013,04,16,08,11,1.80
2013,04,16,08,12,1.90
2013,04,16,08,13,1.90
2013,04,16,08,14,1.90
2013,04,16,08,15,1.90
2013,04,16,08,16,1.90
2013,04,16,08,17,1.90
2013,04,16,08,18,1.90
2013,04,16,08,19,1.90
2013,04,16,08,20,1.90
2013,04,16,08,21,1.90
2013,04,16,08,22,1.90
2013,04,16,08,23,1.90
2013,04,16,08,24,1.90
2013,04,16,08,25,1.90
2013,04,16,08,26,1.90
2013,04,16,08,27,1.90
2013,04,16,08,28,1.90
2013,04,16,08,29,1.90
2013,04,16,08,30,1.90
2013,04,16,08,31,1.90
2013,04,16,08,32,1.90
2013,04,16,08,33,1.90
2013,04,16,08,34,1.90
2013,04,16,08,35,1.90
2013,04,16,08,36,1.90
2013,04,16,08,37,1.90
2013,04,16,08,38,1.90
2013,04,16,08,39,1.90
2013,04,16,08,40,1.90
2013,04,16,08,41,2.00
2013,04,16,08,42,2.00
2013,04,16,08,43,2.10
2013,04,16,08,44,2.10
2013,04,16,08,45,2.10
2013,04,16,08,46,2.10
2013,04,16,08,47,2.10
2013,04,16,08,48,2.10
2013,04,16,08,49,2.10
2013,04,16,08,50,2.10
2013,04,16,08,51,2.10
2013,04,16,08,52,2.10
2013,04,16,08,53,2.10
2013,04,16,08,54,2.10
2013,04,16,08,55,2.10
2013,04,16,08,56,2.10
2013,04,16,08,57,2.20
2013,04,16,08,58,2.20
2013,04,16,08,59,2.20
2013,04,16,09,00,2.20
2013,04,16,09,01,2.20
2013,04,16,09,02,2.20
2013,04,16,09,03,2.20
2013,04,16,09,04,2.20
2013,04,16,09,05,2.20
2013,04,16,09,06,2.30
2013,04,16,09,07,2.30
2013,04,16,09,08,2.30
2013,04,16,09,09,2.30
2013,04,16,09,10,2.30
2013,04,16,09,11,2.40
2013,04,16,09,12,2.40
2013,04,16,09,13,2.40
2013,04,16,09,14,2.40
2013,04,16,09,15,2.50
2013,04,16,09,16,2.60
2013,04,16,09,17,2.60
2013,04,16,09,18,2.70
2013,04,16,09,19,2.70
2013,04,16,09,20,2.80
2013,04,16,09,21,2.90
2013,04,16,09,22,2.90
2013,04,16,09,23,3.00
2013,04,16,09,24,3.00
2013,04,16,09,25,3.10
2013,04,16,09,26,3.10
2013,04,16,09,27,3.20
2013,04,16,09,28,3.20
2013,04,16,09,29,3.20
2013,04,16,09,30,3.30
2013,04,16,09,31,3.30
2013,04,16,09,32,3.30
2013,04,16,09,33,3.40
2013,04,16,09,34,3.40
2013,04,16,09,35,3.50
2013,04,16,09,36,3.50
2013,04,16,09,37,3.60
2013,04,16,09,38,3.60
2013,04,16,09,39,3.60
2013,04,16,09,40,3.60
2013,04,16,09,41,3.60
2013,04,16,09,42,3.70
2013,04,16,09,43,3.70
2013,04,16,09,44,3.80
2013,04,16,09,45,3.80
2013,04,16,09,46,3.80
2013,04,16,09,47,3.90
2013,04,16,09,48,3.90
2013,04,16,09,49,4.00
2013,04,16,09,50,4.00
2013,04,16,09,51,4.10
2013,04,16,09,52,4.20
2013,04,16,09,53,4.20
2013,04,16,09,54,4.30
2013,04,16,09,55,4.40
2013,04,16,09,56,4.40
2013,04,16,09,57,4.50
2013,04,16,09,58,4.60
2013,04,16,09,59,4.70
2013,04,16,10,00,4.80
2013,04,16,10,01,4.90
2013,04,16,10,02,5.10
2013,04,16,10,03,5.20
2013,04,16,10,04,5.30
2013,04,16,10,05,5.50
2013,04,16,10,06,5.60
2013,04,16,10,07,5.70
2013,04,16,10,08,5.80
2013,04,16,10,09,5.80
2013,04,16,10,10,5.90
2013,04,16,10,11,6.00
2013,04,16,10,12,6.10
2013,04,16,10,13,6.20
2013,04,16,10,14,6.30
2013,04,16,10,15,6.40
2013,04,16,10,16,6.50
2013,04,16,10,17,6.60
2013,04,16,10,18,6.70
2013,04,16,10,19,6.80
2013,04,16,10,20,6.90
2013,04,16,10,21,7.00
2013,04,16,10,22,7.10
2013,04,16,10,23,7.20
2013,04,16,10,24,7.30
2013,04,16,10,25,7.40
2013,04,16,10,26,7.50
2013,04,16,10,27,7.60
2013,04,16,10,28,7.70
2013,04,16,10,29,7.70
2013,04,16,10,30,7.80
2013,04,16,10,31,7.90
2013,04,16,10,32,8.00
2013,04,16,10,33,8.00
2013,04,16,10,34,8.10
2013,04,16,10,35,8.20
2013,04,16,10,36,8.30
2013,04,16,10,37,8.40
2013,04,16,10,38,8.50
2013,04,16,10,39,8.60
2013,04,16,10,40,8.70
2013,04,16,10,41,8.80
2013,04,16,10,42,8.90
2013,04,16,10,43,9.00
2013,04,16,10,44,9.00
2013,04,16,10,45,9.10
2013,04,16,10,46,9.10
2013,04,16,10,47,9.20
2013,04,16,10,48,9.30
2013,04,16,10,49,9.30
2013,04,16,10,50,9.40
2013,04,16,10,51,9.50
2013,04,16,10,52,9.50
2013,04,16,10,53,9.60
2013,04,16,10,54,9.70
2013,04,16,10,55,9.70
2013,04,16,10,56,9.80
2013,04,16,10,57,9.80
2013,04,16,10,58,9.80
2013,04,16,10,59,9.90
2013,04,16,11,00,9.90
2013,04,16,11,01,10.00
2013,04,16,11,02,10.10
2013,04,16,11,03,10.10
2013,04,16,11,04,10.20
2013,04,16,11,05,10.30
2013,04,16,11,06,10.40
2013,04,16,11,07,10.50
2013,04,16,11,08,10.50
2013,04,16,11,09,10.60
2013,04,16,11,10,10.60
2013,04,16,11,11,10.60
2013,04,16,11,12,10.70
2013,04,16,11,13,10.70
2013,04,16,11,14,10.80
2013,04,16,11,15,10.80
2013,04,16,11,16,10.90
2013,04,16,11,17,10.90
2013,04,16,11,18,11.00
2013,04,16,11,19,11.00
2013,04,16,11,20,11.10
2013,04,16,11,21,11.20
2013,04,16,11,22,11.20
2013,04,16,11,23,11.30
2013,04,16,11,24,11.30
2013,04,16,11,25,11.30
2013,04,16,11,26,11.30
2013,04,16,11,27,11.40
2013,04,16,11,28,11.50
2013,04,16,11,29,11.60
2013,04,16,11,30,11.60
2013,04,16,11,31,11.70
2013,04,16,11,32,11.70
2013,04,16,11,33,11.80
2013,04,16,11,34,11.80
2013,04,16,11,35,11.90
2013,04,16,11,36,11.90
2013,04,16,11,37,12.00
2013,04,16,11,38,12.10
2013,04,16,11,39,12.10
2013,04,16,11,40,12.20
2013,04,16,11,41,12.30
2013,04,16,11,42,12.30
2013,04,16,11,43,12.40
2013,04,16,11,44,12.50
2013,04,16,11,45,12.50
2013,04,16,11,46,12.60
2013,04,16,11,47,12.70
2013,04,16,11,48,12.80
2013,04,16,11,49,12.90
2013,04,16,11,50,13.00
2013,04,16,11,51,13.10
2013,04,16,11,52,13.10
2013,04,16,11,53,13.10
2013,04,16,11,54,13.20
2013,04,16,11,55,13.20
2013,04,16,11,56,13.30
2013,04,16,11,57,13.30
2013,04,16,11,58,13.30
2013,04,16,11,59,13.30
2013,04,16,12,00,13.40
2013,04,16,12,01,13.40
2013,04,16,12,02,13.40
2013,04,16,12,03,13.30
2013,04,16,12,04,13.30
2013,04,16,12,05,13.30
2013,04,16,12,06,13.30
2013,04,16,12,07,13.30
2013,04,16,12,08,13.20
2013,04,16,12,09,13.20
2013,04,16,12,10,13.30
2013,04,16,12,11,13.30
2013,04,16,12,12,13.40
2013,04,16,12,13,13.40
2013,04,16,12,14,13.50
2013,04,16,12,15,13.50
2013,04,16,12,16,13.60
2013,04,16,12,17,13.70
2013,04,16,12,18,13.80
2013,04,16,12,19,13.80
2013,04,16,12,20,13.90
2013,04,16,12,21,13.90
2013,04,16,12,22,14.00
2013,04,16,12,23,14.10
2013,04,16,12,24,14.20
2013,04,16,12,25,14.20
2013,04,16,12,26,14.30
2013,04,16,12,27,14.30
2013,04,16,12,28,14.30
2013,04,16,12,29,14.30
2013,04,16,12,30,14.30
2013,04,16,12,31,14.40
2013,04,16,12,32,14.40
2013,04,16,12,33,14.50
2013,04,16,12,34,14.50
2013,04,16,12,35,14.70
2013,04,16,12,36,14.80
2013,04,16,12,37,15.00
2013,04,16,12,38,15.20
2013,04,16,12,39,15.40
2013,04,16,12,40,15.50
2013,04,16,12,41,15.60
2013,04,16,12,42,15.70
2013,04,16,12,43,15.80
2013,04,16,12,44,15.80
2013,04,16,12,45,15.90
2013,04,16,12,46,15.80
2013,04,16,12,47,15.80
2013,04,16,12,48,15.90
2013,04,16,12,49,15.90
2013,04,16,12,50,16.00
2013,04,16,12,51,16.10
2013,04,16,12,52,16.20
2013,04,16,12,53,16.10
2013,04,16,12,54,16.10
2013,04,16,12,55,16.20
2013,04,16,12,56,16.20
2013,04,16,12,57,16.20
2013,04,16,12,58,16.30
2013,04,16,12,59,16.20
2013,04,16,13,00,16.20
2013,04,16,13,01,16.30
2013,04,16,13,02,16.20
2013,04,16,13,03,16.20
2013,04,16,13,04,16.20
2013,04,16,13,05,16.20
2013,04,16,13,06,16.20
2013,04,16,13,07,16.30
2013,04,16,13,08,16.30
2013,04,16,13,09,16.30
2013,04,16,13,10,16.30
2013,04,16,13,11,16.30
2013,04,16,13,12,16.30
2013,04,16,13,13,16.30
2013,04,16,13,14,16.20
2013,04,16,13,15,16.20
2013,04,16,13,16,16.20
2013,04,16,13,17,16.30
2013,04,16,13,18,16.40
2013,04,16,13,19,16.50
2013,04,16,13,20,16.60
2013,04,16,13,21,16.70
2013,04,16,13,22,16.70
2013,04,16,13,23,16.60
2013,04,16,13,24,16.50
2013,04,16,13,25,16.40
2013,04,16,13,26,16.40
2013,04,16,13,27,16.30
2013,04,16,13,28,16.30
2013,04,16,13,29,16.30
2013,04,16,13,30,16.40
2013,04,16,13,31,16.50
2013,04,16,13,32,16.70
2013,04,16,13,33,16.80
2013,04,16,13,34,16.80
2013,04,16,13,35,16.90
2013,04,16,13,36,16.90
2013,04,16,13,37,16.90
2013,04,16,13,38,16.90
2013,04,16,13,39,16.90
2013,04,16,13,40,16.90
2013,04,16,13,41,17.00
2013,04,16,13,42,16.90
2013,04,16,13,43,16.90
2013,04,16,13,44,17.00
2013,04,16,13,45,17.00
2013,04,16,13,46,17.00
2013,04,16,13,47,16.90
2013,04,16,13,48,16.90
2013,04,16,13,49,16.90
2013,04,16,13,50,17.00
2013,04,16,13,51,17.00
2013,04,16,13,52,16.90
2013,04,16,13,53,16.90
2013,04,16,13,54,16.80
2013,04,16,13,55,16.80
2013,04,16,13,56,16.90
2013,04,16,13,57,16.90
2013,04,16,13,58,16.90
2013,04,16,13,59,16.90
2013,04,16,14,00,16.90
2013,04,16,14,01,17.00
2013,04,16,14,02,17.00
2013,04,16,14,03,17.10
2013,04,16,14,04,17.20
2013,04,16,14,05,17.30
2013,04,16,14,06,17.30
2013,04,16,14,07,17.30
2013,04,16,14,08,17.30
2013,04,16,14,09,17.30
2013,04,16,14,10,17.30
2013,04,16,14,11,17.30
2013,04,16,14,12,17.30
2013,04,16,14,13,17.30
2013,04,16,14,14,17.30
2013,04,16,14,15,17.30
2013,04,16,14,16,17.30
2013,04,16,14,17,17.30
2013,04,16,14,18,17.30
2013,04,16,14,19,17.30
2013,04,16,14,20,17.30
2013,04,16,14,21,17.30
2013,04,16,14,22,17.30
2013,04,16,14,23,17.40
2013,04,16,14,24,17.50
2013,04,16,14,25,17.60
2013,04,16,14,26,17.70
2013,04,16,14,27,17.80
2013,04,16,14,28,17.80
2013,04,16,14,29,17.80
2013,04,16,14,30,17.80
2013,04,16,14,31,17.70
2013,04,16,14,32,17.70
2013,04,16,14,33,17.80
2013,04,16,14,34,17.80
2013,04,16,14,35,17.80
2013,04,16,14,36,17.80
2013,04,16,14,37,17.70
2013,04,16,14,38,17.70
2013,04,16,14,39,17.70
2013,04,16,14,40,17.70
2013,04,16,14,41,17.60
2013,04,16,14,42,17.50
2013,04,16,14,43,17.40
2013,04,16,14,44,17.40
2013,04,16,14,45,17.40
2013,04,16,14,46,17.40
2013,04,16,14,47,17.40
2013,04,16,14,48,17.30
2013,04,16,14,49,17.30
2013,04,16,14,50,17.30
2013,04,16,14,51,17.30
2013,04,16,14,52,17.30
2013,04,16,14,53,17.30
2013,04,16,14,54,17.20
2013,04,16,14,55,17.20
2013,04,16,14,56,17.20
2013,04,16,14,57,17.10
2013,04,16,14,58,17.10
2013,04,16,14,59,17.10
2013,04,16,15,00,17.10
2013,04,16,15,01,17.20
2013,04,16,15,02,17.20
2013,04,16,15,03,17.30
2013,04,16,15,04,17.30
2013,04,16,15,05,17.30
2013,04,16,15,06,17.30
2013,04,16,15,07,17.30
2013,04,16,15,08,17.30
2013,04,16,15,09,17.30
2013,04,16,15,10,17.30
2013,04,16,15,11,17.20
2013,04,16,15,12,17.20
2013,04,16,15,13,17.10
2013,04,16,15,14,17.10
2013,04,16,15,15,17.10
2013,04,16,15,16,17.20
2013,04,16,15,17,17.30
2013,04,16,15,18,17.30
2013,04,16,15,19,17.30
2013,04,16,15,20,17.20
2013,04,16,15,21,17.30
2013,04,16,15,22,17.30
2013,04,16,15,23,17.30
2013,04,16,15,24,17.30
2013,04,16,15,25,17.30
2013,04,16,15,26,17.30
2013,04,16,15,27,17.30
2013,04,16,15,28,17.30
2013,04,16,15,29,17.40
2013,04,16,15,30,17.30
2013,04,16,15,31,17.30
2013,04,16,15,32,17.30
2013,04,16,15,33,17.30
2013,04,16,15,34,17.40
2013,04,16,15,35,17.40
2013,04,16,15,36,17.30
2013,04,16,15,37,17.20
2013,04,16,15,38,17.10
2013,04,16,15,39,17.00
2013,04,16,15,40,16.90
2013,04,16,15,41,16.90
2013,04,16,15,42,16.90
2013,04,16,15,43,16.80
2013,04,16,15,44,16.80
2013,04,16,15,45,16.70
2013,04,16,15,46,16.70
2013,04,16,15,47,16.60
2013,04,16,15,48,16.70
2013,04,16,15,49,16.70
2013,04,16,15,50,16.70
2013,04,16,15,51,16.70
2013,04,16,15,52,16.80
2013,04,16,15,53,16.80
2013,04,16,15,54,16.80
2013,04,16,15,55,16.80
2013,04,16,15,56,16.80
2013,04,16,15,57,16.80
2013,04,16,15,58,16.80
2013,04,16,15,59,16.80
2013,04,16,16,00,16.90
2013,04,16,16,01,16.90
2013,04,16,16,02,16.90
2013,04,16,16,03,17.00
2013,04,16,16,04,17.00
2013,04,16,16,05,17.00
2013,04,16,16,06,17.00
2013,04,16,16,07,17.00
2013,04,16,16,08,16.90
2013,04,16,16,09,16.90
2013,04,16,16,10,16.90
2013,04,16,16,11,16.90
2013,04,16,16,12,16.80
2013,04,16,16,13,16.80
2013,04,16,16,14,16.80
2013,04,16,16,15,16.80
2013,04,16,16,16,16.70
2013,04,16,16,17,16.70
2013,04,16,16,18,16.70
2013,04,16,16,19,16.70
2013,04,16,16,20,16.80
2013,04,16,16,21,16.80
2013,04,16,16,22,16.80
2013,04,16,16,23,16.80
2013,04,16,16,24,16.70
2013,04,16,16,25,16.70
2013,04,16,16,26,16.70
2013,04,16,16,27,16.80
2013,04,16,16,28,16.80
2013,04,16,16,29,16.80
2013,04,16,16,30,16.80
2013,04,16,16,31,16.80
2013,04,16,16,32,16.70
2013,04,16,16,33,16.70
2013,04,16,16,34,16.70
2013,04,16,16,35,16.60
2013,04,16,16,36,16.60
2013,04,16,16,37,16.50
2013,04,16,16,38,16.40
2013,04,16,16,39,16.40
2013,04,16,16,40,16.40
2013,04,16,16,41,16.40
2013,04,16,16,42,16.40
2013,04,16,16,43,16.30
2013,04,16,16,44,16.30
2013,04,16,16,45,16.30
2013,04,16,16,46,16.30
2013,04,16,16,47,16.30
2013,04,16,16,48,16.30
2013,04,16,16,49,16.30
2013,04,16,16,50,16.30
2013,04,16,16,51,16.30
2013,04,16,16,52,16.30
2013,04,16,16,53,16.20
2013,04,16,16,54,16.20
2013,04,16,16,55,16.10
2013,04,16,16,56,16.10
2013,04,16,16,57,16.10
2013,04,16,16,58,16.10
2013,04,16,16,59,16.10
2013,04,16,17,00,16.10
2013,04,16,17,01,16.10
2013,04,16,17,02,16.10
2013,04,16,17,03,16.20
2013,04,16,17,04,16.20
2013,04,16,17,05,16.20
2013,04,16,17,06,16.10
2013,04,16,17,07,16.10
2013,04,16,17,08,16.10
2013,04,16,17,09,16.20
2013,04,16,17,10,16.20
2013,04,16,17,11,16.20
2013,04,16,17,12,16.20
2013,04,16,17,13,16.20
2013,04,16,17,14,16.20
2013,04,16,17,15,16.20
2013,04,16,17,16,16.20
2013,04,16,17,17,16.20
2013,04,16,17,18,16.20
2013,04,16,17,19,16.20
2013,04,16,17,20,16.10
2013,04,16,17,21,16.10
2013,04,16,17,22,16.10
2013,04,16,17,23,16.10
2013,04,16,17,24,16.10
2013,04,16,17,25,16.10
2013,04,16,17,26,16.10
2013,04,16,17,27,16.10
2013,04,16,17,28,16.10
2013,04,16,17,29,16.10
2013,04,16,17,30,16.10
2013,04,16,17,31,16.10
2013,04,16,17,32,16.00
2013,04,16,17,33,16.00
2013,04,16,17,34,15.90
2013,04,16,17,35,15.90
2013,04,16,17,36,15.90
2013,04,16,17,37,15.80
2013,04,16,17,38,15.80
2013,04,16,17,39,15.80
2013,04,16,17,40,15.80
2013,04,16,17,41,15.80
2013,04,16,17,42,15.80
2013,04,16,17,43,15.70
2013,04,16,17,44,15.70
2013,04,16,17,45,15.70
2013,04,16,17,46,15.70
2013,04,16,17,47,15.80
2013,04,16,17,48,15.80